Probability
0 0 0 0 0 0 0 0 0 0 0 0 0 0 0 0 0 0 0 0 0 0 0 0 0 0 0 0 0 0 0 0 0 0 0 0 0 0 0 0 0 0 0 0
0 0 0 0 0 0 0 0 0 0 0 0 0 0 0 0 0 0 0 0 0 0 0 0 0 0 0 0 0 0 0 0 0 0 0 0 0 0 0 0 0 0 0 0
0 0 0 0 0 0 0 0 0 0 0 0 0 0 0 0 0 0 0 0 0 0 0 0 0 0 0 0 0 0 0 0 0 0 0 0 0 0 0 0 0 0 0 0
0 0 0 0 0 0 0 0 0 0 0 0 0 0 0 0 0 0 0 0 0 0 0 0 0 0 0 0 0 0 0 0 0 0 0 0 0 0 0 0 0 0 0 0
0 0 0 0 0 0 0 0 0 0 0 0 0 0 0 0 0 0 0 0 0 0 0 0 0 0 0 0 0 0 0 0 0 0 0 0 0 0 0 0 0 0 0 0
0 0 0 0 0 0 0 0 0 0 0 0 0 0 0 0 0 0 0 0 0 0 0 0 0 0 0 0 0 0 0 0 0 0 0 0 0 0 0 0 0 0 0 0
0 0 0 0 0 0 0 0 0 0 0 0 0 0 0 0 0 0 0 0 0 0 0 0 0 0 0 0 0 0 0 0 0 0 0 0 0 0 0 0 0 0 0 0
0 0 0 0 0 0 0 0 0 0 0 0 0 0 0 0 0 0 0 0 0 0 0 0 0 0 0 0 0 0 0 0 0 0 0 0 0 0 0 0 0 0 0 0
0 0 0 0 0 0 0 0 0 0 0 0 0 0 0 0 0 0 0 0 0 0 0 0 0 0 0 0 0 0 0 0 0 0 0 0 0 0 0 0 0 0 0 0
0 0 0 0 0 0 0 0 0 0 0 0 0 0 0 0 0 0 0 0 0 0 0 0 0 0 0 0 0 0 0 0 0 0 0 0 0 0 0 0 0 0 0 0
0 0 0 0 0 0 0 0 0 0 0 0 0 0 0 0 0 0 0 0 0 0 0 0 0 0 0 0 0 0 0 0 0 0 0 0 0 0 0 0 0 0 0 0
0 0 0 0 0 0 0 0 0 0 0 0 0 0 0 0 0 0 0 0 0 0 0 0 0 0 0 0 0 0 0 0 0 0 0 0 0 0 0 0 0 0 0 0
0 0 0 0 0 0 0 0 0 0 0 0 0 0 0 0 0 0 0 0 0 0 0 0 0 0 0 0 0 0 0 0 0 0 0 0 0 0 0 0 0 0 0 0
0 0 0 0 0 0 0 0 0 0 0 0 0 0 0 0 0 0 0 0 0 0 0 0 0 0 0 0 0 0 0 0 0 0 0 0 0 0 0 0 0 0 0 0
0 0 0 0 0 0 0 0 0 0 0 0 0 0 0 0 0 0 0 0 0 0 0 0 0 0 0 0 0 0 0 0 0 0 0 0 0 0 0 0 0 0 0 0
0 0 0 0 0 0 0 0 0 0 0 0 0 0 0 0 0 0 0 0 0 0 0 0 0 0 0 0 0 0 0 0 0 0 0 0 0 0 0 0 0 0 0 0
0 0 0 0 0 0 0 0 0 0 0 0 0 0 0 0 0 0 0 0 0 0 0 0 0 0 0 0 0 0 0 0 0 0 0 0 0 0 0 0 0 0 0 0
0 0 0 0 0 0 0 0 0 0 0 0 0 0 0 0 0 0 0 0 0 0 0 0 0 0 0 0 0 0 0 0 0 0 0 0 0 0 0 0 0 0 0 0
0 0 0 0 0 0 0 0 0 0 0 0 0 0 0 0 0 0 0 0 0 0 0 0 0 0 0 0 0 0 0 0 0 0 0 0 0 0 0 0 0 0 0 0
0 0 0 0 0 0 0 0 0 0 0 0 0 0 0 0 0 0 0 0 0 0 0 0 0 0 0 0 0 0 0 0 0 0 0 0 0 0 0 0 0 0 0 0
0 0 0 0 0 0 0 0 0 0 0 0 0 0 0 0 0 0 0 0 0 0 0 0 0 0 0 0 0 0 0 0 0 0 0 0 0 0 0 0 0 0 0 0
0 0 0 0 0 0 0 0 0 0 0 0 0 0 0 0 0 0 0 0 0 0 0 0 0 0 0 0 0 0 0 0 0 0 0 0 0 0 0 0 0 0 0 0
0 0 0 0 0 0 0 0 0 0 0 0 0 0 0 0 0 0 0 0 0 0 0 0 0 0 0 0 0 0 0 0 0 0 0 0 0 0 0 0 0 0 0 0
0 0 0 0 0 0 0 0 0 0 0 0 0 0 0 0 0 0 0 0 0 0 0 0 0 0 0 0 0 0 0 0 0 0 0 0 0 0 0 0 0 0 0 0
0 0 0 0 0 0 0 0 0 0 0 0 0 0 0 0 0 0 0 0 0 0 0 0 0 0 0 0 0 0 0 0 0 0 0 0 0 0 0 0 0 0 0 0
0 0 0 0 0 0 0 0 0 0 0 0 0 0 0 0 0 0 0 0 0 0 0 0 0 0 0 0 0 0 0 0 0 0 0 0 0 0 0 0 0 0 0 0
Height
5755 5754 5751 5749 5747 5745 5743 5741 5740 5738 5736 5734 5733 5732 5732 5730 5728 5727 5726 5725 5725 5724 5723 5723 5722 5722 5722 5722 5723 5725 5726 5727 5729 5731 5733 5735 5737 5739 5740 5742 5743 5745 5747 5748
5747 5745 5743 5740 5738 5735 5733 5731 5730 5728 5725 5723 5722 5722 5722 5719 5718 5717 5715 5714 5713 5713 5712 5712 5711 5711 5711 5712 5712 5714 5715 5716 5718 5720 5722 5724 5726 5728 5730 5732 5734 5736 5738 5739
5739 5737 5734 5731 5729 5727 5724 5722 5720 5718 5716 5713 5711 5711 5711 5709 5707 5705 5704 5703 5702 5701 5701 5700 5700 5700 5700 5701 5701 5702 5704 5705 5707 5709 5711 5713 5716 5718 5720 5723 5724 5726 5728 5730
5731 5728 5726 5723 5720 5717 5715 5713 5710 5707 5705 5703 5701 5698 5700 5698 5695 5693 5692 5691 5690 5689 5688 5688 5688 5688 5688 5689 5689 5691 5692 5694 5695 5697 5699 5702 5704 5707 5710 5712 5714 5716 5718 5720
5723 5720 5717 5714 5712 5708 5706 5703 5700 5697 5694 5692 5690 5686 5688 5686 5683 5681 5679 5678 5677 5676 5675 5675 5675 5675 5676 5676 5678 5679 5680 5682 5684 5686 5688 5690 5692 5695 5698 5700 5703 5705 5708 5710
5715 5712 5709 5706 5702 5699 5696 5693 5689 5686 5683 5681 5680 5676 5675 5674 5671 5669 5667 5665 5664 5663 5663 5663 5663 5663 5663 5664 5665 5667 5668 5670 5671 5673 5675 5678 5680 5683 5686 5688 5691 5694 5697 5699
5707 5703 5699 5696 5693 5690 5686 5683 5679 5675 5673 5671 5668 5665 5664 5662 5659 5656 5655 5653 5651 5651 5650 5650 5650 5651 5651 5652 5653 5654 5656 5657 5659 5661 5663 5665 5668 5671 5674 5676 5679 5682 5685 5688
5697 5694 5690 5686 5683 5679 5676 5673 5669 5665 5662 5660 5658 5654 5654 5650 5647 5644 5643 5641 5639 5639 5638 5638 5638 5639 5639 5640 5641 5642 5644 5645 5647 5649 5651 5653 5656 5658 5661 5664 5667 5670 5673 5676
5686 5684 5680 5675 5671 5669 5665 5662 5658 5654 5649 5647 5646 5643 5642 5639 5635 5633 5631 5629 5628 5627 5626 5626 5626 5626 5626 5627 5628 5630 5631 5633 5635 5636 5639 5641 5643 5646 5649 5652 5655 5658 5661 5664
5675 5672 5670 5665 5662 5658 5654 5651 5647 5642 5638 5634 5633 5632 5630 5626 5624 5622 5619 5617 5616 5615 5614 5614 5613 5613 5614 5615 5616 5617 5619 5620 5622 5624 5626 5629 5631 5634 5637 5640 5643 5646 5649 5652
5664 5661 5658 5654 5651 5647 5644 5640 5635 5631 5627 5623 5620 5622 5618 5615 5612 5609 5608 5606 5604 5603 5602 5601 5601 5601 5601 5601 5603 5604 5606 5608 5610 5612 5614 5616 5619 5622 5624 5627 5631 5634 5637 5640
5654 5650 5647 5644 5640 5636 5632 5629 5625 5622 5617 5613 5609 5611 5606 5603 5600 5597 5596 5594 5592 5590 5589 5588 5587 5587 5587 5588 5589 5591 5593 5595 5597 5599 5601 5604 5606 5609 5612 5615 5618 5621 5624 5627
5643 5640 5636 5633 5631 5626 5621 5618 5614 5609 5606 5602 5598 5599 5595 5591 5588 5585 5583 5581 5579 5577 5576 5575 5574 5574 5574 5574 5576 5577 5579 5582 5584 5586 5588 5591 5594 5596 5599 5602 5605 5608 5611 5614
5633 5629 5626 5622 5618 5613 5610 5607 5602 5598 5593 5590 5587 5585 5584 5579 5576 5573 5571 5568 5567 5565 5563 5562 5561 5561 5561 5561 5562 5564 5566 5568 5570 5573 5576 5578 5581 5584 5586 5589 5592 5595 5598 5601
5622 5619 5615 5611 5606 5602 5599 5596 5592 5587 5583 5579 5576 5573 5571 5567 5564 5561 5559 5556 5554 5553 5551 5550 5549 5548 5548 5549 5550 5551 5552 5555 5557 5560 5562 5565 5568 5570 5573 5576 5579 5582 5585 5588
5612 5608 5604 5601 5596 5591 5588 5586 5582 5577 5573 5568 5564 5562 5559 5555 5552 5549 5547 5544 5543 5541 5539 5538 5537 5536 5535 5536 5537 5538 5539 5541 5544 5546 5549 5552 5555 5557 5560 5562 5565 5568 5571 5574
5602 5598 5593 5590 5586 5581 5578 5576 5571 5567 5562 5558 5554 5552 5547 5543 5540 5537 5535 5533 5531 5529 5527 5526 5524 5523 5523 5523 5524 5525 5527 5528 5531 5533 5536 5539 5542 5544 5547 5550 5553 5556 5558 5561
5591 5586 5581 5578 5575 5570 5571 5565 5560 5556 5552 5548 5543 5539 5535 5532 5529 5526 5523 5521 5519 5517 5515 5514 5513 5512 5511 5511 5512 5513 5514 5516 5518 5520 5523 5526 5529 5532 5535 5538 5540 5543 5546 5549
5581 5576 5571 5567 5562 5560 5559 5554 5549 5544 5542 5538 5533 5529 5525 5521 5518 5516 5512 5509 5507 5505 5504 5502 5501 5500 5499 5499 5500 5501 5501 5503 5505 5508 5511 5514 5517 5520 5523 5526 5528 5531 5534 5537
5572 5567 5563 5557 5552 5549 5549 5544 5538 5535 5532 5527 5522 5518 5514 5510 5508 5506 5502 5499 5497 5495 5493 5491 5489 5488 5488 5487 5487 5488 5489 5491 5493 5495 5498 5502 5505 5508 5511 5514 5516 5519 5522 5525
5562 5558 5553 5548 5543 5540 5538 5533 5529 5526 5523 5517 5512 5508 5504 5500 5497 5495 5492 5489 5487 5485 5482 5480 5478 5477 5476 5476 5476 5477 5478 5479 5481 5483 5486 5490 5493 5496 5499 5502 5505 5508 5511 5514
5553 5548 5544 5539 5535 5533 5528 5523 5520 5516 5511 5506 5502 5498 5494 5491 5488 5485 5482 5479 5477 5475 5473 5471 5469 5467 5466 5465 5466 5467 5467 5469 5470 5472 5475 5478 5482 5485 5488 5491 5493 5496 5499 5502
5543 5540 5534 5531 5528 5523 5518 5514 5510 5505 5501 5497 5493 5489 5485 5482 5479 5476 5473 5471 5468 5466 5464 5462 5460 5458 5457 5456 5456 5457 5457 5458 5460 5462 5464 5467 5470 5473 5476 5479 5482 5484 5487 5490
5534 5530 5525 5521 5518 5514 5509 5505 5500 5496 5492 5488 5483 5480 5476 5473 5470 5467 5464 5462 5459 5457 5455 5453 5451 5449 5448 5447 5447 5448 5448 5449 5450 5452 5454 5457 5460 5463 5465 5468 5471 5473 5476 5479
5525 5520 5516 5512 5509 5505 5501 5496 5492 5487 5483 5479 5475 5471 5467 5464 5461 5458 5455 5453 5450 5448 5446 5444 5442 5441 5440 5439 5439 5439 5439 5440 5441 5443 5445 5447 5450 5453 5455 5457 5460 5463 5465 5467
5516 5511 5507 5503 5500 5495 5492 5487 5483 5479 5474 5470 5466 5462 5459 5455 5452 5449 5446 5444 5441 5439 5437 5435 5434 5433 5432 5431 5430 5430 5430 5431 5432 5433 5435 5438 5440 5442 5445 5447 5450 5452 5455 5457
Wind_Speed
27 28 29 30 31 32 33 34 34 34 34 35 35 34 33 34 35 35 35 36 36 36 36 36 36 36 36 37 38 38 38 38 38 38 38 37 37 37 37 37 36 36 36 35
29 29 30 31 32 33 34 34 35 35 35 36 36 35 34 35 35 36 36 37 37 37 37 37 37 37 38 38 39 39 39 40 40 40 39 39 39 38 38 38 38 37 37 37
29 30 31 32 33 33 34 34 35 36 37 38 38 38 36 36 36 36 37 37 38 38 38 38 38 38 38 38 39 39 39 40 41 41 41 41 41 40 40 39 39 39 38 38
30 30 31 32 33 33 34 34 36 37 38 38 39 40 37 37 37 37 37 38 38 39 39 40 39 39 39 39 40 40 40 40 41 42 42 42 42 42 41 41 41 41 40 39
30 31 32 33 33 35 35 36 36 37 39 40 39 41 39 37 37 38 38 38 38 39 39 39 39 40 40 40 40 40 41 41 41 42 43 43 43 43 43 43 42 42 42 41
32 33 34 35 35 36 37 37 38 39 39 40 38 40 39 37 37 37 37 38 38 38 38 38 38 39 40 41 41 41 41 41 42 42 43 44 44 44 44 44 44 43 43 43
34 35 36 36 36 37 37 38 39 40 40 40 39 40 39 37 37 37 37 38 38 38 38 38 38 38 39 39 40 41 41 42 42 42 43 44 45 45 45 44 44 44 44 43
37 37 37 38 38 38 38 38 38 40 41 40 39 40 39 38 38 38 38 38 38 37 38 38 38 39 40 40 40 40 41 41 42 42 42 43 44 45 45 45 44 44 44 44
38 38 39 39 39 39 38 38 39 40 42 42 41 40 39 38 38 38 37 37 37 37 38 38 39 39 40 41 41 41 41 41 41 42 43 43 43 44 45 45 44 44 44 44
39 40 39 39 39 38 38 39 39 40 42 43 42 40 39 38 38 38 38 38 37 37 38 38 39 40 40 41 41 41 41 41 41 42 42 43 43 44 44 45 45 45 45 45
40 40 40 39 38 38 38 39 39 40 40 42 43 40 39 39 39 39 38 39 39 39 40 40 40 40 41 41 42 42 42 42 42 42 42 42 43 43 44 44 45 45 45 46
40 40 40 39 39 38 38 38 38 39 40 41 43 42 39 39 39 39 39 39 40 41 41 41 42 42 41 41 42 42 43 42 42 42 42 42 43 43 44 45 46 46 47 47
40 40 40 40 39 39 39 38 39 41 42 41 42 41 40 40 39 39 39 39 40 40 40 40 41 42 42 42 42 42 43 43 43 43 43 43 43 43 44 45 47 47 47 47
39 39 39 40 39 39 39 38 38 40 41 42 41 41 39 40 39 38 38 39 40 40 40 40 40 41 41 42 42 42 43 43 43 43 43 44 44 44 45 45 46 47 47 47
38 39 39 38 38 38 38 38 38 38 39 41 40 40 38 38 38 38 38 38 38 39 39 39 39 39 40 40 41 41 41 43 43 43 44 44 44 44 44 45 45 46 47 47
38 38 38 37 38 38 38 37 37 37 38 39 39 38 37 38 38 37 38 38 38 38 38 38 38 39 39 40 40 40 40 41 43 43 44 44 44 44 44 43 44 45 45 46
38 37 37 37 37 39 38 36 36 36 36 37 37 37 36 36 36 37 38 38 38 38 38 37 37 38 38 39 40 40 40 41 42 42 43 43 43 43 43 43 43 43 43 44
38 37 38 39 39 38 37 36 35 35 35 35 35 35 36 36 35 36 37 37 38 39 39 38 38 38 38 38 39 40 40 40 41 42 42 42 43 42 42 42 42 42 43 43
36 36 38 39 39 38 35 34 34 34 33 34 34 35 35 35 34 34 36 36 36 37 37 37 37 38 38 38 38 39 39 39 40 41 41 42 42 42 42 42 42 42 42 42
34 35 36 37 37 37 35 34 34 35 34 34 35 35 35 34 33 31 32 33 34 34 34 35 35 36 37 37 37 37 37 38 39 40 41 42 42 41 41 41 41 41 41 41
35 35 35 35 35 35 35 34 34 35 35 34 35 35 34 33 32 31 30 31 31 31 31 32 33 33 34 34 35 35 35 35 36 38 39 40 41 40 40 40 40 41 41 41
35 36 35 35 35 34 34 34 35 35 36 35 35 34 33 32 32 31 30 30 30 30 30 30 31 31 32 32 32 32 33 34 34 36 37 38 39 39 39 39 39 40 40 41
34 34 34 34 34 34 34 34 35 36 36 35 34 34 33 33 32 31 31 31 31 31 30 30 29 29 29 30 30 29 30 32 33 34 36 37 37 38 38 38 38 38 39 39
34 33 34 34 33 34 33 33 34 34 34 34 34 34 33 32 32 31 31 31 31 31 31 30 29 28 28 28 29 29 29 29 30 32 33 34 34 35 36 36 37 37 37 38
33 34 33 33 33 33 32 33 33 33 33 33 33 33 32 31 31 31 30 30 30 29 28 28 27 27 27 27 28 28 29 29 30 30 31 32 33 33 34 35 35 35 35 36
33 33 33 32 32 33 32 32 32 32 32 32 31 31 31 31 30 29 29 29 28 27 27 26 26 26 26 27 27 27 28 29 29 29 31 31 32 33 33 34 34 34 34 34
Wind_Direction
289 288 288 287 286 286 285 283 282 282 281 280 280 280 278 277 276 275 273 272 270 269 268 266 264 262 260 259 258 257 255 252 250 249 249 249 249 249 249 249 249 250 250 250
291 291 290 290 289 287 286 285 284 282 282 281 280 280 278 278 276 275 274 272 271 269 268 267 264 262 260 259 258 255 253 252 250 250 249 249 249 249 249 249 249 249 249 250
293 293 292 291 290 289 288 287 286 284 283 282 282 280 279 278 277 276 274 273 271 269 268 266 264 262 260 258 257 255 253 251 250 249 249 249 249 249 249 249 249 250 250 250
294 294 293 292 291 290 289 288 287 286 285 284 284 283 280 280 279 278 276 273 271 269 268 266 263 261 259 257 256 254 253 251 250 249 248 248 249 249 249 249 249 250 250 250
296 295 294 293 293 291 291 290 288 288 287 286 286 286 285 283 281 279 276 273 270 268 267 265 262 260 258 256 255 254 253 252 250 249 249 248 248 248 248 249 249 249 250 251
295 296 295 294 294 293 292 290 289 288 288 288 289 288 287 286 284 281 277 274 271 268 266 264 262 260 259 257 256 254 253 252 251 250 249 249 249 248 248 248 249 249 249 250
296 295 295 295 294 293 293 292 291 290 290 290 290 288 288 287 285 282 279 276 273 269 266 262 260 259 258 257 256 255 254 253 252 251 250 250 250 249 249 248 248 249 249 249
297 296 296 296 295 294 293 292 292 292 292 291 290 289 289 287 285 282 280 276 274 270 266 263 260 259 257 256 256 255 254 253 252 252 251 250 250 249 249 248 248 248 248 248
298 298 297 297 296 295 294 292 291 290 290 290 290 289 287 286 283 281 279 277 274 271 268 265 262 259 257 256 255 254 253 253 253 253 251 250 250 249 249 249 248 248 248 248
298 298 298 297 296 295 293 293 292 291 291 290 290 290 290 287 285 282 280 277 274 272 270 267 265 262 258 257 256 254 253 253 253 252 251 250 249 249 249 249 248 247 248 247
298 298 298 297 297 296 294 293 292 290 289 290 291 290 289 287 285 283 280 277 274 272 271 268 266 264 261 259 257 255 254 253 253 253 251 250 249 249 249 249 248 248 248 248
299 299 299 298 297 295 294 294 292 289 289 289 289 289 288 286 284 282 280 278 276 274 272 271 268 266 264 261 259 256 254 253 253 252 251 250 249 249 248 248 247 248 248 248
301 300 300 299 298 296 295 294 292 290 288 288 287 287 286 285 284 282 280 278 276 275 274 272 269 267 264 262 260 257 255 253 253 252 251 250 249 250 249 248 248 248 248 248
300 300 300 300 299 297 296 294 292 290 289 289 287 287 285 283 282 280 279 277 276 275 274 272 269 266 264 262 260 258 255 253 252 251 251 250 250 250 250 250 250 249 249 249
300 300 300 299 298 296 295 294 293 291 290 289 289 287 285 283 281 279 278 277 277 276 275 273 270 267 264 261 260 258 256 254 253 252 251 250 250 250 251 251 250 250 249 248
300 300 300 299 297 295 295 295 293 292 291 291 289 287 286 282 279 277 277 277 277 277 275 273 270 267 264 262 260 258 256 254 253 252 251 250 250 250 251 250 249 248 249 249
302 301 299 298 297 296 295 297 295 294 293 292 292 290 286 284 280 277 275 275 276 275 274 273 270 268 266 263 261 258 256 255 253 252 250 249 249 250 250 249 248 248 249 249
302 301 300 299 299 298 299 298 296 295 295 294 294 293 290 287 284 282 280 278 276 275 273 272 270 268 267 266 263 260 257 255 253 250 249 248 249 249 249 249 250 249 249 249
302 302 301 301 301 301 300 299 298 297 297 296 295 294 292 290 287 284 282 281 279 278 275 274 272 270 268 267 264 261 258 256 253 249 248 248 248 248 248 249 249 249 249 249
302 302 302 303 303 303 303 302 300 300 300 299 297 296 295 293 291 287 284 283 281 281 279 277 275 272 270 267 265 261 259 256 253 250 249 249 248 248 249 249 249 249 249 249
301 302 303 303 303 303 303 302 301 301 301 300 300 298 296 295 294 291 287 285 285 284 281 280 278 274 271 268 265 262 260 257 254 251 249 249 248 249 249 249 249 249 250 249
302 302 303 303 303 304 303 303 302 301 300 300 300 299 296 295 293 292 289 288 287 287 285 283 280 276 272 269 266 263 261 257 254 251 248 248 247 248 249 249 249 249 249 249
303 303 303 302 302 302 302 302 301 301 301 301 300 298 295 295 293 291 290 289 288 287 286 285 282 278 273 269 266 264 260 257 255 253 249 247 247 247 248 249 248 247 248 249
302 302 301 301 301 301 301 301 301 301 301 301 299 297 295 294 294 292 291 289 289 287 286 284 282 278 273 270 267 265 261 258 256 253 249 247 247 247 248 247 247 247 247 248
302 302 302 302 302 301 300 302 303 303 303 302 301 299 298 297 296 294 291 290 290 289 287 284 281 278 274 269 266 264 262 259 257 254 251 249 248 248 247 247 247 247 247 248
302 303 303 303 303 302 302 302 303 304 303 303 302 301 301 299 298 295 293 291 290 289 287 285 282 279 275 270 268 267 265 262 259 257 253 249 249 247 247 246 247 247 247 248